[[{"header":{"parameterUnit":"m.s-1","parameterCategory":1,"la1":30.2991,"la2":30.254,"lo1":-89.0895,"lo2":-89.0444,"dy":0.0017,"dx":0.0017,"nx":28,"ny":28,"refTime":"2025-04-23T03:00:00:Z","depth":0,"parameterNumber":2,"parameterNumberName":"U-component_of_WINDS"},"data":[0,0,0,0,0,0,0,0,0,0,0,0,0,0,0,0,0,0,0,0,0,0,0,0,0,0,0,0,0,0,0,0,0,0,0,0,0,0,0,0,0,0,0,0,0,0,0,0,0,0,0,0,0,0,0,0,0,0,-3.237,-3.237,0,-3.2424,-3.2425,-3.2425,-3.2387,-3.2385,-3.2383,-3.2382,-3.2435,-3.2438,-3.2441,0,0,0,0,0,0,0,0,0,0,0,0,0,-3.223,-3.2233,-3.2369,-3.237,-3.2371,-3.2424,-3.2425,-3.2425,-3.2387,-3.2385,-3.2383,-3.2381,-3.2434,-3.2437,-3.2441,0,0,0,0,0,0,0,0,0,0,0,0,0,-3.2288,-3.2234,-3.2369,-3.2358,-3.2358,-3.2424,-3.2425,-3.2426,-3.2388,-3.2385,-3.2382,-3.238,-3.2433,-3.2437,-3.2442,-3.2521,0,0,-3.2455,-3.2457,0,0,0,0,0,0,0,0,-3.2285,-3.2293,-3.2359,-3.2359,-3.2359,-3.2396,-3.2395,-3.2457,-3.2388,-3.2376,-3.2382,-3.2379,-3.2424,-3.2429,-3.2445,-3.2523,-3.2525,-3.2456,-3.2458,-3.246,-3.2462,0,0,0,0,0,0,0,-3.2281,-3.2291,-3.2391,-3.236,-3.236,-3.235,-3.2355,-3.2407,-3.2414,-3.2377,-3.2374,-3.2382,-3.2423,-3.244,-3.2446,-3.2526,-3.2456,-3.246,-3.2462,-3.2464,-3.2672,-3.2675,0,0,0,0,0,0,-3.2278,-3.2288,-3.2389,-3.2393,-3.2315,-3.2354,-3.236,-3.2387,-3.2413,-3.2415,-3.2384,-3.238,-3.2434,-3.244,-3.2447,-3.2541,-3.246,-3.2465,-3.2467,-3.2669,-3.2672,-3.2676,0,0,0,0,0,0,-3.2275,-3.2288,-3.2387,-3.2339,-3.2351,-3.236,-3.2389,-3.2389,-3.2406,-3.2418,-3.2419,-3.24,-3.2432,-3.2441,-3.2503,-3.2542,-3.2467,-3.2471,-3.2666,-3.267,-3.2674,-3.2729,0,0,0,0,0,0,-3.2271,-3.2287,-3.2317,-3.234,-3.2354,-3.2442,-3.2392,-3.2392,-3.2414,-3.241,-3.2434,-3.2435,-3.2431,-3.2496,-3.2507,-3.2547,-3.2474,-3.2662,-3.2668,-3.2673,-3.2724,-3.2735,-3.2744,0,0,0,0,0,-3.2267,-3.233,-3.2319,-3.2332,-3.2393,-3.2445,-3.2452,-3.2447,-3.2418,-3.2448,-3.2456,-3.2434,-3.2537,-3.2503,-3.2515,-3.2557,-3.266,-3.2666,-3.2672,-3.2719,-3.2733,-3.2744,0,0,0,0,0,0,-3.231,-3.2333,-3.2321,-3.2394,-3.2418,-3.2438,-3.2476,-3.2461,-3.2493,-3.2487,-3.2478,-3.2484,-3.2549,-3.2559,-3.2521,-3.2635,-3.2593,-3.2602,-3.2625,-3.2638,-3.2648,-3.2643,-3.2478,0,0,0,0,0,-3.2329,-3.237,-3.2387,-3.245,-3.2463,-3.2468,-3.249,-3.2484,-3.2508,-3.2518,-3.253,-3.2553,-3.259,-3.2615,-3.265,-3.2726,-3.273,-3.2761,-3.2771,-3.2779,-3.2786,-3.2827,-3.284,-3.2696,-3.2696,-3.2696,0,0,-3.2366,-3.2384,-3.241,-3.246,-3.2477,-3.2519,-3.2476,-3.2523,-3.2553,-3.2524,-3.2583,-3.2594,-3.2619,-3.2688,-3.2719,-3.2699,-3.2828,-3.2787,-3.2794,-3.2797,-3.2835,-3.2848,-3.286,-3.2701,-3.27,-3.2699,0,0,-3.2457,-3.2475,-3.2529,-3.2548,-3.2576,-3.2579,-3.2592,-3.2615,-3.2621,-3.268,-3.2659,-3.2696,-3.276,-3.2779,-3.2797,-3.2896,-3.2877,-3.2908,-3.296,-3.2999,-3.3011,-3.3021,-3.3055,-3.3067,-3.2916,-3.2916,-3.2916,0,-3.25,-3.2563,-3.2558,-3.2606,-3.2628,-3.2606,-3.266,-3.2678,-3.2716,-3.2731,-3.2708,-3.2789,-3.2805,-3.2877,-3.2902,-3.2918,-3.2931,-3.2904,-3.301,-3.302,-3.3029,-3.3061,-3.3074,-3.2919,-3.2919,-3.2918,-3.2918,0,-3.2614,-3.2659,-3.2699,-3.2737,-3.2763,-3.2814,-3.2816,-3.2844,-3.2836,-3.2841,-3.2902,-3.292,-3.2958,-3.2976,-3.2968,-3.3048,-3.3034,-3.3011,-3.2969,-3.3046,-3.3076,-3.3089,-3.2924,-3.2923,-3.2922,-3.2921,0,0,-3.2731,-3.2767,-3.2782,-3.2799,-3.2828,-3.2862,-3.2912,-3.2951,-3.2974,-3.3001,-3.3042,-3.3098,-3.3077,-3.3097,-3.3092,-3.3127,-3.3202,-3.3099,-3.3099,-3.3116,-3.329,-3.3306,-3.332,-3.3191,-3.3193,-3.3195,-3.3287,0,-3.2822,-3.2909,-3.2907,-3.2988,-3.3029,-3.3008,-3.3052,-3.3074,-3.3081,-3.3116,-3.3123,-3.3162,-3.3132,-3.3144,-3.3178,-3.3186,-3.3237,-3.318,-3.3227,-3.3229,-3.322,-3.3336,-3.3353,-3.3439,-3.3299,-3.3301,-3.3303,0,-3.2938,-3.2971,-3.3056,-3.308,-3.3097,-3.3136,-3.3171,-3.3205,-3.323,-3.3233,-3.3257,-3.3246,-3.3296,-3.3254,-3.3322,-3.3284,-3.3303,-3.331,-3.3314,-3.3316,-3.3269,-3.334,-3.3466,-3.3478,-3.3321,-3.332,-3.3318,0,-3.3013,-3.3078,-3.3138,-3.3153,-3.3183,-3.3211,-3.3224,-3.3247,-3.3271,-3.3301,-3.3316,-3.3352,-3.3371,-3.3399,-3.3398,-3.3368,-3.3467,-3.3425,-3.3469,-3.3469,-3.3488,-3.3487,-3.3617,-3.3505,-3.3504,-3.3504,-3.3504,0,-3.3114,-3.3166,-3.3172,-3.3208,-3.3266,-3.3264,-3.3321,-3.3332,-3.3353,-3.339,-3.3375,-3.341,-3.3408,-3.3444,-3.3443,-3.3499,-3.3508,-3.3511,-3.3509,-3.3511,-3.351,-3.3522,-3.3515,-3.3508,-3.3507,-3.3506,-3.3506,0,-3.3206,-3.3212,-3.3275,-3.3299,-3.3307,-3.3348,-3.3368,-3.3402,-3.3409,-3.3456,-3.3467,-3.3476,-3.3517,-3.352,-3.3567,-3.3567,-3.3634,-3.3628,-3.3626,-3.3624,-3.3667,-3.3662,-3.3808,-3.3826,-3.3703,-3.3704,-3.3705,0,-3.3269,-3.3309,-3.3337,-3.3362,-3.3378,-3.3417,-3.3441,-3.344,-3.3466,-3.3498,-3.3528,-3.3568,-3.36,-3.3667,-3.3677,-3.3713,-3.3706,-3.3755,-3.3711,-3.3711,-3.3705,-3.3702,-3.3705,-3.3762,-3.3764,-3.3765,-3.3766,0,-3.3378,-3.338,-3.3415,-3.3453,-3.3482,-3.3511,-3.3538,-3.3559,-3.3561,-3.359,-3.3633,-3.3658,-3.3707,-3.3746,-3.3782,-3.3795,-3.378,-3.378,-3.3792,-3.3792,-3.3789,-3.379,-3.3647,-3.3776,-3.3775,-3.3774,-3.3774,-3.3773,-3.3457,-3.3491,-3.3517,-3.3557,-3.3578,-3.3604,-3.3637,-3.3648,-3.3684,-3.3724,-3.3721,-3.3768,-3.3792,-3.3839,-3.3855,-3.3891,-3.3874,-3.3891,-3.3895,-3.3899,-3.3903,-3.3785,-3.3898,-3.3897,-3.3897,-3.3897,-3.3897,0,-3.3564,-3.358,-3.3617,-3.3656,-3.3688,-3.3674,-3.3703,-3.373,-3.3772,-3.3796,-3.3828,-3.3877,-3.3916,-3.393,-3.3967,-3.3993,-3.3988,-3.4003,-3.4,-3.4003,-3.3917,-3.3902,-3.4007,-3.4007,-3.4007,-3.4007,-3.4007,-3.4007,-3.3623,-3.3681,-3.3686,-3.3753,-3.3769,-3.3815,-3.3833,-3.3856,-3.3876,-3.3931,-3.3964,-3.3973,-3.3994,-3.4033,-3.4067,-3.407,-3.4084,-3.4102,-3.4102,-3.402,-3.4009,-3.3998,-3.3985,-3.4105,-3.4105,-3.4185,-3.4186,-3.4186]},{"header":{"parameterUnit":"m.s-1","parameterCategory":1,"la1":30.2991,"la2":30.254,"lo1":-89.0895,"lo2":-89.0444,"dy":0.0017,"dx":0.0017,"nx":28,"ny":28,"refTime":"2025-04-23T03:00:00:Z","depth":0,"parameterNumber":3,"parameterNumberName":"V-component_of_WINDS"},"data":[0,0,0,0,0,0,0,0,0,0,0,0,0,0,0,0,0,0,0,0,0,0,0,0,0,0,0,0,0,0,0,0,0,0,0,0,0,0,0,0,0,0,0,0,0,0,0,0,0,0,0,0,0,0,0,0,0,0,1.1922,1.1922,0,1.1874,1.1873,1.1873,1.183,1.183,1.1829,1.1829,1.1776,1.1775,1.1774,0,0,0,0,0,0,0,0,0,0,0,0,0,1.1976,1.1976,1.1923,1.1922,1.1921,1.1874,1.1873,1.1873,1.183,1.1829,1.1829,1.1828,1.1776,1.1775,1.1774,0,0,0,0,0,0,0,0,0,0,0,0,0,1.1943,1.1975,1.1923,1.1894,1.1891,1.1874,1.1873,1.1873,1.183,1.1829,1.1829,1.1828,1.1776,1.1775,1.1774,1.1779,0,0,1.1769,1.1769,0,0,0,0,0,0,0,0,1.1945,1.1941,1.1899,1.1896,1.1893,1.1857,1.1873,1.1841,1.183,1.1853,1.1829,1.1828,1.1803,1.18,1.1792,1.1777,1.1775,1.1769,1.1768,1.1768,1.1767,0,0,0,0,0,0,0,1.1947,1.1943,1.1903,1.1899,1.1895,1.1884,1.1878,1.1867,1.1833,1.1851,1.1848,1.1843,1.1801,1.1794,1.179,1.1774,1.1769,1.1768,1.1767,1.1767,1.1762,1.1763,0,0,0,0,0,0,1.1954,1.1945,1.1905,1.1902,1.1918,1.1883,1.1877,1.1869,1.1833,1.1827,1.1844,1.1841,1.1796,1.1792,1.1788,1.1794,1.1768,1.1766,1.1766,1.1762,1.1763,1.1763,0,0,0,0,0,0,1.1956,1.1951,1.1907,1.1923,1.1916,1.1883,1.1875,1.1869,1.1861,1.1827,1.1821,1.1842,1.1796,1.179,1.1783,1.1791,1.1766,1.1764,1.1761,1.1762,1.1763,1.1804,0,0,0,0,0,0,1.1957,1.1952,1.1954,1.1923,1.1915,1.1902,1.1875,1.1868,1.1859,1.1855,1.1824,1.1818,1.1795,1.1785,1.1781,1.1789,1.1763,1.176,1.1761,1.1763,1.1801,1.1806,1.181,0,0,0,0,0,1.1959,1.1966,1.1954,1.195,1.1918,1.1903,1.1898,1.1872,1.186,1.1862,1.184,1.1819,1.1791,1.1784,1.178,1.1787,1.1759,1.1761,1.1763,1.1799,1.1805,1.181,0,0,0,0,0,0,1.1998,1.1962,1.1948,1.1945,1.1928,1.1896,1.1897,1.1879,1.1863,1.186,1.1828,1.1821,1.1817,1.1801,1.1794,1.1791,1.1772,1.1773,1.1802,1.1807,1.1811,1.1815,1.1762,0,0,0,0,0,1.2006,1.1998,1.1967,1.1967,1.1959,1.193,1.1922,1.1904,1.1884,1.1876,1.1854,1.1835,1.1821,1.1813,1.1799,1.1799,1.1792,1.1802,1.1806,1.181,1.1811,1.181,1.1815,1.1769,1.1769,1.1769,0,0,1.2023,1.2002,1.1999,1.1975,1.1959,1.1951,1.1924,1.1916,1.191,1.1874,1.1866,1.1849,1.1826,1.1822,1.1819,1.1809,1.1822,1.1812,1.1815,1.1814,1.1813,1.1817,1.1821,1.177,1.177,1.177,0,0,1.205,1.2033,1.2033,1.2018,1.1995,1.1975,1.1975,1.1946,1.1935,1.1926,1.19,1.1891,1.1869,1.1854,1.1843,1.1866,1.1846,1.1862,1.1884,1.1884,1.1888,1.1891,1.19,1.1903,1.1863,1.1863,1.1863,0,1.2073,1.2061,1.2034,1.2029,1.2019,1.1988,1.1987,1.1974,1.1947,1.1941,1.193,1.1902,1.1884,1.1877,1.1883,1.1875,1.1874,1.1865,1.189,1.1892,1.1895,1.1903,1.1906,1.1865,1.1865,1.1865,1.1865,0,1.2091,1.2083,1.2085,1.2062,1.2052,1.2049,1.2021,1.2015,1.1998,1.198,1.1972,1.1949,1.193,1.1927,1.191,1.1918,1.1912,1.1896,1.1876,1.1902,1.1909,1.1911,1.1869,1.1868,1.1867,1.1867,0,0,1.2139,1.2103,1.2104,1.2094,1.2067,1.206,1.2055,1.2038,1.2034,1.2016,1.2012,1.1995,1.198,1.1968,1.1948,1.1948,1.1969,1.1932,1.1931,1.194,1.1977,1.199,1.1994,1.1956,1.1956,1.1957,1.1979,0,1.2162,1.2153,1.213,1.2128,1.212,1.2092,1.2088,1.2071,1.2054,1.2045,1.2026,1.2015,1.1996,1.1988,1.1987,1.1967,1.1976,1.1965,1.1951,1.1951,1.1958,1.1997,1.201,1.2032,1.1982,1.1982,1.1982,0,1.2186,1.2173,1.2171,1.2146,1.2142,1.2139,1.2122,1.2114,1.2094,1.2081,1.2069,1.2048,1.2042,1.2024,1.2015,1.2008,1.2001,1.199,1.199,1.1987,1.1968,1.1996,1.2039,1.2042,1.1986,1.1986,1.1986,0,1.2223,1.2204,1.22,1.2192,1.2162,1.2161,1.2149,1.2128,1.212,1.2105,1.21,1.2084,1.2075,1.2064,1.2039,1.2028,1.2033,1.2012,1.2022,1.2023,1.2024,1.2024,1.2067,1.2019,1.2019,1.2019,1.2019,0,1.225,1.225,1.2216,1.2214,1.2214,1.2187,1.2187,1.2171,1.2154,1.2148,1.2122,1.2117,1.2085,1.2076,1.2056,1.2052,1.2048,1.2038,1.2033,1.204,1.2042,1.2035,1.2033,1.202,1.202,1.202,1.202,0,1.229,1.2268,1.2262,1.2235,1.2229,1.2229,1.2206,1.2203,1.2185,1.2178,1.2175,1.2147,1.2135,1.211,1.2091,1.2078,1.2078,1.2069,1.2085,1.2082,1.2093,1.2093,1.2133,1.2137,1.2088,1.2088,1.2089,0,1.2309,1.2309,1.2282,1.2277,1.2266,1.2258,1.225,1.2224,1.2217,1.2195,1.2195,1.2182,1.217,1.2152,1.213,1.2115,1.2105,1.2121,1.2103,1.2111,1.2106,1.2107,1.2107,1.2124,1.2125,1.2126,1.2126,0,1.2346,1.2335,1.2325,1.2312,1.2304,1.2291,1.2278,1.2275,1.2245,1.2238,1.2227,1.2218,1.22,1.2187,1.2169,1.2156,1.2136,1.2132,1.2134,1.2141,1.2151,1.2146,1.2096,1.2131,1.2131,1.213,1.213,1.213,1.2376,1.2375,1.2356,1.2347,1.2334,1.2322,1.2319,1.2301,1.2292,1.2276,1.2261,1.2251,1.2232,1.2207,1.2194,1.2186,1.2176,1.2178,1.2179,1.218,1.2183,1.2153,1.2183,1.2182,1.2182,1.2182,1.2182,0,1.2411,1.2399,1.239,1.2373,1.2365,1.2349,1.2333,1.2328,1.232,1.2305,1.2294,1.2281,1.2269,1.2246,1.2232,1.223,1.2221,1.2227,1.2227,1.2224,1.2193,1.2193,1.2235,1.2235,1.2235,1.2235,1.2235,1.2235,1.2429,1.2426,1.2414,1.2405,1.2392,1.2383,1.2376,1.2365,1.2353,1.234,1.2331,1.2316,1.2298,1.2282,1.2271,1.2264,1.226,1.227,1.226,1.2231,1.2226,1.2221,1.2222,1.2269,1.2269,1.2292,1.2293,1.2293]}]]